Regional Weather Roundup
Issued by NWS

Home | Current Version | Previous Version | Graphics & Text | Print | Product List | Glossary On
Versions: 1 2 3 4 5 6 7 8 9 10 11 12 13 14 15 16 17 18 19 20 21 22 23 24 25 26 27 28 29 30 31 32 33 34 35 36 37 38 39 40 41 42 43 44 45 46 47 48 49 50
000
ASUS43 KFSD 300802
RWRSD

WEATHER ROUNDUP FOR SOUTH DAKOTA
NATIONAL WEATHER SERVICE SIOUX FALLS SD
300 AM CDT THU JUL 30 2015

NOTE: "FAIR" INDICATES FEW OR NO CLOUDS BELOW 12,000 FEET WITH NO
SIGNIFICANT WEATHER AND/OR OBSTRUCTIONS TO VISIBILITY.


SDZ001>005-009-010-012>017-300900-
NORTHWEST AND NORTH CENTRAL SOUTH DAKOTA

CITY           SKY/WX    TMP DP  RH WIND       PRES   REMARKS
BUFFALO          N/A     61  39  44 W5        30.14S
FAITH            N/A     67  39  35 N5        30.18S
MOBRIDGE       CLEAR     56  55  97 CALM      30.11R
$$

SDZ012>016-024>037-041>051-057-063-072>074-300900-
SOUTHWEST AND SOUTH CENTRAL SOUTH DAKOTA

CITY           SKY/WX    TMP DP  RH WIND       PRES   REMARKS
RAPID CTY ARPT CLEAR     55  48  77 NW8       30.22R
PIERRE         CLEAR     59  49  69 S6        30.12S
CUSTER         CLEAR     49  39  68 NW6       30.34F
ELLSWORTH AFB  CLEAR     60  47  61 N5        30.21S
PHILIP         CLEAR     56  52  86 W3        30.17R
PINE RIDGE     CLEAR     54  48  80 E5        30.21F
WINNER         CLOUDY    73  52  47 SW10      30.15F
$$

SDZ004>011-016>023-039-040-300900-
NORTHEAST SOUTH DAKOTA

CITY           SKY/WX    TMP DP  RH WIND       PRES   REMARKS
ABERDEEN       CLEAR     57  53  86 SW7       30.08S
WATERTOWN      CLEAR     62  54  74 SW10      30.10R
BROOKINGS      CLEAR     61  54  77 SW5       30.13S
SISSETON         N/A     67  52  58 W12       30.03S
$$

SDZ017-020-022-023-036>040-048>070-300900-
SOUTHEAST SOUTH DAKOTA

CITY           SKY/WX    TMP DP  RH WIND       PRES   REMARKS
SIOUX FALLS    MOCLDY    62  57  83 CALM      30.12S
HURON          CLEAR     62  54  74 SW6       30.10S
CHAMBERLAIN    MOCLDY    62  58  88 CALM      30.14S
MITCHELL       PTCLDY    60  56  86 CALM      30.12S
YANKTON        CLEAR     64  55  72 NE3       30.12S
$$

ABBREVIATIONS USED IN REMARKS
   TC - TEMPERATURE IN CELSIUS
  WCI - WIND CHILL INDEX
   HX - HEAT INDEX
  VSB - VISIBILITY




USA.gov is the U.S. government's official web portal to all federal, state and local government web resources and services.